カタログに戻る

ATLAS 5 CENTAUR DEB

運用中HEO
NORAD 47096·DEBRIS·🇺🇸 United States

打ち上げ Sep 17, 2014 から Cape Canaveral Space Force Station

Loading…

次のパス (今後24時間)

TLE

最新Source: Space-Track

元期: Sep 13, 2026, 11:01 UTC

1 47096U 14055DE  26256.45963632 -.00000054  00000-0  00000+0 0  9999
2 47096  19.5135 158.3038 4831390 138.4114 270.6228  1.79155131 38708

AllMySatでATLAS 5 CENTAUR DEBをリアルタイム追跡

Download on the App Store